Hollybrook Lake Weather Center

Moon Phase Calendar



Hollybrook Lake Water Level
Online Cameras

 


      

Current Conditions in Vandiver
12/5/2020 12:11:59 AM

39°F
Feels Like 32
Clouds
Humidity
86%
Pressure
30.18"
Wind
5.8 mph (NNW)
Dew Point
35°F
UV Index
0/10 (Low)
Visibility
6 mi

Hourly Forecast

Date & Time Sat, Dec 5
12:00 AM
Sat, Dec 5
1:00 AM
Sat, Dec 5
2:00 AM
Sat, Dec 5
3:00 AM
Sat, Dec 5
4:00 AM
Sat, Dec 5
5:00 AM
Sat, Dec 5
6:00 AM
Sat, Dec 5
7:00 AM
Sat, Dec 5
8:00 AM
Sat, Dec 5
9:00 AM
Sat, Dec 5
10:00 AM
Sat, Dec 5
11:00 AM
Sat, Dec 5
12:00 PM
Sat, Dec 5
1:00 PM
Sat, Dec 5
2:00 PM
Sat, Dec 5
3:00 PM
Sat, Dec 5
4:00 PM
Sat, Dec 5
5:00 PM
Sat, Dec 5
6:00 PM
Sat, Dec 5
7:00 PM
Sat, Dec 5
8:00 PM
Sat, Dec 5
9:00 PM
Sat, Dec 5
10:00 PM
Sat, Dec 5
11:00 PM
Sun, Dec 6
12:00 AM
Sun, Dec 6
1:00 AM
Sun, Dec 6
2:00 AM
Sun, Dec 6
3:00 AM
Sun, Dec 6
4:00 AM
Sun, Dec 6
5:00 AM
Sun, Dec 6
6:00 AM
Sun, Dec 6
7:00 AM
Sun, Dec 6
8:00 AM
Sun, Dec 6
9:00 AM
Sun, Dec 6
10:00 AM
Sun, Dec 6
11:00 AM
Sun, Dec 6
12:00 PM
Sun, Dec 6
1:00 PM
Sun, Dec 6
2:00 PM
Sun, Dec 6
3:00 PM
Sun, Dec 6
4:00 PM
Sun, Dec 6
5:00 PM
Sun, Dec 6
6:00 PM
Sun, Dec 6
7:00 PM
Sun, Dec 6
8:00 PM
Sun, Dec 6
9:00 PM
Sun, Dec 6
10:00 PM
Sun, Dec 6
11:00 PM
Condition
Clouds

Clear

Clear

Clear

Clear

Clear

Clear

Clear

Clear

Clear

Clear

Clear

Clear

Clear

Clear

Clear

Clear

Clear

Clouds

Clouds

Clouds

Clouds

Clear

Clear

Clear

Clear

Clear

Clear

Clear

Clear

Clear

Clouds

Clouds

Clouds

Clouds

Clouds

Clouds

Clouds

Clouds

Clouds

Clouds

Clouds

Clouds

Clouds

Clouds

Clouds

Clouds

Clouds
Temperature 39°F38°F38°F37°F37°F37°F36°F37°F40°F44°F48°F51°F54°F55°F55°F55°F52°F48°F46°F45°F45°F44°F43°F42°F42°F41°F41°F40°F40°F40°F39°F40°F44°F48°F51°F54°F55°F55°F56°F55°F52°F51°F50°F50°F47°F45°F46°F47°F
Feels Like 33°F32°F32°F32°F31°F31°F31°F31°F35°F39°F42°F45°F48°F49°F50°F50°F48°F44°F43°F42°F41°F40°F39°F39°F38°F38°F37°F37°F36°F36°F36°F36°F41°F44°F47°F48°F50°F51°F51°F50°F48°F47°F47°F45°F42°F41°F41°F42°F
Cloudiness 20%10%4%1%0%0%0%0%0%0%0%0%0%0%0%0%0%4%20%33%17%11%9%7%6%0%0%0%0%0%0%23%12%41%50%59%62%92%92%95%96%97%97%94%75%55%57%65%
Visibility 6 mi6 mi6 mi6 mi6 mi6 mi6 mi6 mi6 mi6 mi6 mi6 mi6 mi6 mi6 mi6 mi6 mi6 mi6 mi6 mi6 mi6 mi6 mi6 mi6 mi6 mi6 mi6 mi6 mi6 mi6 mi6 mi6 mi6 mi6 mi6 mi6 mi6 mi6 mi6 mi6 mi6 mi6 mi6 mi6 mi6 mi6 mi6 mi
Precipitation 0%0%0%0%0%0%0%0%0%0%0%0%0%0%0%0%0%0%0%0%0%0%0%0%0%0%0%0%0%0%0%0%0%0%0%0%0%0%0%0%0%0%0%0%0%0%0%1%
Humidity 86%89%90%91%91%91%92%92%84%75%66%57%53%52%52%53%62%71%74%77%79%82%84%86%86%86%87%87%87%88%89%88%79%70%62%58%54%54%54%57%65%67%67%68%75%80%81%79%
Dew Point 35°F35°F35°F35°F35°F35°F34°F35°F36°F37°F37°F37°F37°F38°F38°F39°F40°F39°F39°F39°F39°F39°F39°F38°F38°F38°F37°F37°F37°F37°F37°F37°F38°F39°F39°F39°F39°F40°F40°F40°F41°F40°F40°F40°F40°F40°F40°F41°F
Pressure 30.18"30.18"30.21"30.21"30.21"30.21"30.21"30.24"30.24"30.24"30.24"30.21"30.18"30.12"30.12"30.12"30.12"30.12"30.12"30.15"30.15"30.15"30.15"30.12"30.12"30.12"30.09"30.09"30.06"30.06"30.06"30.06"30.06"30.06"30.06"30.06"30"29.97"29.94"29.94"29.97"29.97"29.97"29.97"29.97"29.97"29.97"29.97"
Wind Speed 5.2 mph5.1 mph4.6 mph4.6 mph4.4 mph4.2 mph3.9 mph3.6 mph4 mph4 mph4.9 mph5.3 mph5.3 mph5.4 mph5 mph4.6 mph3.6 mph2.5 mph2.4 mph2.1 mph2.4 mph2.2 mph2.1 mph1.8 mph1.7 mph1.5 mph1.4 mph1.2 mph1.8 mph1.5 mph1.8 mph1.4 mph0.9 mph2.8 mph4.2 mph5 mph5.7 mph4 mph3.3 mph4.4 mph4.3 mph2.6 mph1.5 mph4.8 mph4.6 mph4.4 mph4.8 mph5.1 mph
Wind
Direction
305°
NW
307°
NW
302°
WNW
294°
WNW
295°
WNW
300°
WNW
298°
WNW
302°
WNW
296°
WNW
305°
NW
318°
NW
316°
NW
309°
NW
309°
NW
310°
NW
316°
NW
319°
NW
312°
NW
270°
W
297°
WNW
292°
WNW
282°
WNW
275°
W
297°
WNW
284°
WNW
304°
NW
288°
WNW
264°
W
244°
WSW
226°
SW
233°
SW
206°
SSW
221°
SW
222°
SW
231°
SW
255°
WSW
261°
W
278°
W
232°
SW
240°
WSW
259°
W
224°
SW
254°
WSW
253°
WSW
261°
W
244°
WSW
243°
WSW
252°
WSW

Daily Forecast

Date High Low Precip. Humidity
Today
Dec 5

Clear
55 °F
36 °F
0%
56%
Sunday
Dec 6

Clouds
56 °F
39 °F
15%
52%
Monday
Dec 7

Clouds
50 °F
38 °F
24%
57%
Tuesday
Dec 8

Clear
49 °F
32 °F
0%
53%
Wednesday
Dec 9

Clear
55 °F
37 °F
0%
52%
Thursday
Dec 10

Clear
59 °F
39 °F
0%
55%
Friday
Dec 11

Clouds
57 °F
43 °F
0%
64%
Saturday
Dec 12

Clear
62 °F
45 °F
0%
55%
Sunday
Dec 13

Rain
62 °F
49 °F
100%
77%
Monday
Dec 14

Rain
59 °F
45 °F
100%
48%
Tuesday
Dec 15

Rain
49 °F
41 °F
23%
73%
Wednesday
Dec 16

Clouds
50 °F
37 °F
0%
55%
Thursday
Dec 17

Clear
52 °F
36 °F
0%
47%
Friday
Dec 18

Clouds
53 °F
36 °F
0%
49%
Saturday
Dec 19

Rain
52 °F
42 °F
100%
93%
Sunday
Dec 20

Rain
46 °F
41 °F
47%
67%


Temperature 8-14 Day Outlook



Precipitation 8-14 Day Outlook




Quick Links
Hollybrook Lake News
Hollybrook Lake Photos
Hollybrook Lake Videos




About Us
Contact Us
Site Map
Search Site
Advertise With Us
   
Hollybrook.LakesOnline.com
THE HOLLYBROOK LAKE WEBSITE

Copyright 2020, Lakes Online
Privacy    |    Legal